Regional Weather Roundup
Issued by NWS

Home | Current Version | Previous Version | Graphics & Text | Print | Product List | Glossary On
Versions: 1 2 3 4 5 6 7 8 9 10 11 12 13 14 15 16 17 18 19 20 21 22 23 24 25 26 27 28 29 30 31 32 33 34 35 36 37 38 39 40 41 42 43 44 45 46 47 48 49 50
000
ASUS43 KMKX 280621
RWRWI

WISCONSIN REGIONAL WEATHER ROUNDUP
NATIONAL WEATHER SERVICE MILWAUKEE/SULLIVAN WI
100 AM CDT SAT MAR 28 2015

NOTE: "FAIR" INDICATES FEW OR NO CLOUDS BELOW 12,000 FEET WITH NO
SIGNIFICANT WEATHER AND/OR OBSTRUCTIONS TO VISIBILITY.

WIZ001-002-006>008-014>016-023>028-280700-
NORTHWEST WISCONSIN

CITY           SKY/WX    TMP DP  RH WIND       PRES   REMARKS
SUPERIOR ARPT  CLEAR     18  15  90 CALM      30.21S
6HR MIN TEMP:  17; 6HR MAX TEMP:  27;

ASHLAND        CLEAR     12  10  92 SW3       30.21S
6HR MIN TEMP:  12; 6HR MAX TEMP:  24;

HAYWARD        PTCLDY    20   8  60 CALM      30.17F
6HR MIN TEMP:  19; 6HR MAX TEMP:  33;

SIREN          FAIR      21  10  63 CALM      30.18S
6HR MIN TEMP:  19; 6HR MAX TEMP:  33;

CUMBERLAND     PTCLDY    23  14  68 CALM      30.16S
RICE LAKE      PTCLDY    23  15  72 CALM      30.19S
6HR MIN TEMP:  23; 6HR MAX TEMP:  33;

CHETEK         PTCLDY    20  14  76 CALM      30.18S
6HR MIN TEMP:  20; 6HR MAX TEMP:  32;

LADYSMITH      CLEAR     22  15  73 CALM      30.19S
6HR MIN TEMP:  20; 6HR MAX TEMP:  33;

EAU CLAIRE     PTCLDY    22  11  62 S5        30.19S WCI  16
6HR MIN TEMP:  22; 6HR MAX TEMP:  33;

MENOMONIE      PTCLDY    24  14  67 CALM      30.20S
6HR MIN TEMP:  24; 6HR MAX TEMP:  33;

NEW RICHMOND   PTCLDY    24  14  67 CALM      30.18F
6HR MIN TEMP:  23; 6HR MAX TEMP:  32;

OSCEOLA        PTCLDY    26  15  65 SE3       30.21S
6HR MIN TEMP:  24; 6HR MAX TEMP:  34;

$$

WIZ003>005-009-010-017-018-280700-
NORTH CENTRAL WISCONSIN

CITY           SKY/WX    TMP DP  RH WIND       PRES   REMARKS
MANITOWISH WTR CLEAR     11   9  91 CALM      30.15F
6HR MIN TEMP:  10; 6HR MAX TEMP:  27;

ARBOR VITAE    CLEAR     11   5  74 CALM      30.16S
6HR MIN TEMP:  11; 6HR MAX TEMP:  32;

WOODRUFF       CLEAR     11   5  74 CALM      30.16S
6HR MIN TEMP:  11; 6HR MAX TEMP:  32;

RHINELANDER    CLEAR     13   0  56 CALM      30.16S
6HR MIN TEMP:  11; 6HR MAX TEMP:  28;

EAGLE RIVER    CLEAR      7   2  80 CALM      30.15S
6HR MIN TEMP:   6; 6HR MAX TEMP:  26;

LAND O LAKES   FAIR       2  -2  84 CALM      30.16F
6HR MIN TEMP:   1; 6HR MAX TEMP:  26;

PHILLIPS       FAIR      18   7  63 CALM      30.16S
6HR MIN TEMP:  16; 6HR MAX TEMP:  30;

TOMAHAWK       CLEAR      8   5  85 CALM      30.17S
6HR MIN TEMP:   8; 6HR MAX TEMP:  29;

MEDFORD        CLEAR     18  12  77 S3        30.16S
6HR MIN TEMP:  16; 6HR MAX TEMP:  28;

MERRILL        CLEAR     11   9  88 CALM      30.18R
6HR MIN TEMP:  11; 6HR MAX TEMP:  30;

$$

WIZ029-030-035-036-043>047-280700-
CENTRAL WISCONSIN

CITY           SKY/WX    TMP DP  RH WIND       PRES   REMARKS
WAUSAU         CLEAR     18   9  68 E8        30.17R WCI   8
6HR MIN TEMP:  17; 6HR MAX TEMP:  30;

MOSINEE        CLEAR     21  10  63 CALM      30.19R
MARSHFIELD     CLEAR     21  14  74 CALM      30.17S
6HR MIN TEMP:  20; 6HR MAX TEMP:  30;

STEVENS POINT  CLEAR     14   8  79 CALM      30.20R
6HR MIN TEMP:  11; 6HR MAX TEMP:  28;

WAUPACA        CLEAR     21  13  70 CALM      30.23R
6HR MIN TEMP:  20; 6HR MAX TEMP:  32;

WAUTOMA        CLEAR     14   8  77 CALM      30.22S
6HR MIN TEMP:  13; 6HR MAX TEMP:  31;

WISC RAPIDS    CLEAR     16   9  74 CALM      30.20S
6HR MIN TEMP:  15; 6HR MAX TEMP:  29;

CAMP DOUGLAS   CLEAR     14  13  98 E2        30.19F
6HR MIN TEMP:  14; 6HR MAX TEMP:  31;

$$

WIZ011>013-019>022-031-037>040-048>050-280700-
NORTHEAST WISCONSIN

CITY           SKY/WX    TMP DP  RH WIND       PRES   REMARKS
ANTIGO         CLEAR     15   8  72 SE5       30.18R WCI   8
6HR MIN TEMP:  15; 6HR MAX TEMP:  27;

SHAWANO        CLEAR     18  12  79 CALM      30.24S
6HR MIN TEMP:  18; 6HR MAX TEMP:  31;

OCONTO         CLEAR     16   7  65 CALM      30.25S
6HR MIN TEMP:  15; 6HR MAX TEMP:  22;

STURGEON BAY   CLEAR     16   3  57 N5        30.25S WCI   9
6HR MIN TEMP:  16; 6HR MAX TEMP:  25;

GREEN BAY      CLEAR     20  12  71 CALM      30.24R
6HR MIN TEMP:  19; 6HR MAX TEMP:  27;

MANITOWOC      CLEAR     17  14  88 CALM      30.24S
6HR MIN TEMP:  17; 6HR MAX TEMP:  24;

APPLETON       CLEAR     21  12  68 CALM      30.22S
CLINTONVILLE   CLEAR     19  12  73 CALM      30.23S
OSHKOSH        CLEAR     19  12  74 CALM      30.22S
6HR MIN TEMP:  17; 6HR MAX TEMP:  27;

$$

WIZ032>034-041-042-053>061-280700-
SOUTHWEST WISCONSIN

CITY           SKY/WX    TMP DP  RH WIND       PRES   REMARKS
LA CROSSE      CLEAR     24  13  62 CALM      30.21S
6HR MIN TEMP:  22; 6HR MAX TEMP:  34;

SPARTA         CLEAR     14  10  82 CALM      30.21F
6HR MIN TEMP:  14; 6HR MAX TEMP:  34;

VIROQUA        CLEAR     22  12  63 CALM      30.17S
6HR MIN TEMP:  21; 6HR MAX TEMP:  31;

BOSCOBEL       CLEAR     18  13  80 CALM      30.22S
6HR MIN TEMP:  18; 6HR MAX TEMP:  34;

PRAIRIE DU CHI PTCLDY    19  12  73 CALM      30.21F
6HR MIN TEMP:  19; 6HR MAX TEMP:  32;

PLATTEVILLE    CLEAR     24  13  65 CALM      30.19S
6HR MIN TEMP:  22; 6HR MAX TEMP:  31;

$$

WIZ056-057-062-063-064-067-068-280700-
SOUTH CENTRAL WISCONSIN

CITY           SKY/WX    TMP DP  RH WIND       PRES   REMARKS
REEDSBURG      CLEAR     17  11  76 CALM      30.20F
6HR MIN TEMP:  17; 6HR MAX TEMP:  32;

BARABOO/DELLS  CLEAR     20   9  62 S3        30.20S
6HR MIN TEMP:  20; 6HR MAX TEMP:  32;

LONE ROCK      CLEAR     19  12  74 NE5       30.22R WCI  12
6HR MIN TEMP:  19; 6HR MAX TEMP:  34;

MINERAL POINT  CLEAR     21  10  63 E3        30.18S
MADISON        CLEAR     23   8  52 S6        30.21S WCI  16
6HR MIN TEMP:  21; 6HR MAX TEMP:  31;

MIDDLETON      CLEAR     22  10  59 SE3       30.21S
6HR MIN TEMP:  22; 6HR MAX TEMP:  33;

WATERTOWN      CLEAR     16  12  84 CALM      30.22R
6HR MIN TEMP:  16; 6HR MAX TEMP:  27;

MONROE         CLEAR     21  14  73 SE8       30.20S WCI  12
JANESVILLE     CLEAR     21  14  73 CALM      30.22S
$$

WIZ051-052-058>065-066-070>072-280700-
SOUTHEAST WISCONSIN

CITY           SKY/WX    TMP DP  RH WIND       PRES   REMARKS
MILWAUKEE      PTCLDY    23  11  60 W6        30.23R WCI  16
6HR MIN TEMP:  22; 6HR MAX TEMP:  24;

WAUKESHA       CLEAR     18  12  79 CALM      30.23R
MILWAUKEE/TIMM CLEAR     19  12  73 CALM      30.23S
RACINE         CLEAR     23  11  60 N5        30.24R WCI  17
6HR MIN TEMP:  22; 6HR MAX TEMP:  24;

BURLINGTON     CLEAR     15  11  87 CALM      30.22S
6HR MIN TEMP:  14; 6HR MAX TEMP:  24;

KENOSHA        CLEAR     20  13  74 NW5       30.22S WCI  13
6HR MIN TEMP:  17; 6HR MAX TEMP:  24;

FOND DU LAC    CLEAR     17  11  77 CALM      30.22S
6HR MIN TEMP:  17; 6HR MAX TEMP:  27;

SHEBOYGAN      CLEAR     17  13  84 CALM      30.23R
6HR MIN TEMP:  16; 6HR MAX TEMP:  24;

WEST BEND      CLEAR     18  12  79 CALM      30.22S
JUNEAU         CLEAR     18  12  77 CALM      30.23R
6HR MIN TEMP:  18; 6HR MAX TEMP:  27;

$$

LSZ147-162-280700-
LAKE SUPERIOR

STATION/POSITION TIME  TEMP    WIND        PRES    WAVE
                       AIR SEA DIR/SP/G            HT/PER
                 (UTC) (F)     (DEG/KT/KT) (MB)    (FT/S)
DEVILS ISLAND    0600   24     100/  3/  3 1024.4F
PORT WING        0500   18     160/  2/  3 1023.0
SAXON HARBOR     0500   14        CALM     1023.0
$$

LMZ867-665-643>646-280700-
LAKE MICHIGAN

STATION/POSITION TIME  TEMP    WIND        PRES    WAVE



USA.gov is the U.S. government's official web portal to all federal, state and local government web resources and services.